| time (UTC) | temp F | wind direction | speed MPH | gust MPH | rain 1hr in | rain 24hr in | rain mn in | humidity % | barometer mb |
| 20260507124556 | 58 | 360 | 4.0 | 9.0 | 0.00 | 0.00 | 0.00 | 59 | 1032.1 |
| 20260507124042 | 58 | 360 | 3.0 | 9.0 | 0.00 | 0.00 | 0.00 | 58 | 1032.2 |
| 20260507123543 | 58 | 360 | 3.0 | 6.0 | 0.00 | 0.00 | 0.00 | 58 | 1032.2 |
| 20260507123057 | 58 | 360 | 3.0 | 6.0 | 0.00 | 0.00 | 0.00 | 58 | 1032.2 |
| 20260507122542 | 58 | 360 | 3.0 | 6.0 | 0.00 | 0.00 | 0.00 | 58 | 1032.0 |
| 20260507122041 | 58 | 360 | 3.0 | 8.0 | 0.00 | 0.00 | 0.00 | 57 | 1032.0 |
| 20260507121556 | 58 | 360 | 4.0 | 8.0 | 0.00 | 0.00 | 0.00 | 57 | 1032.0 |
| 20260507121043 | 59 | 360 | 4.0 | 8.0 | 0.00 | 0.00 | 0.00 | 57 | 1031.9 |
| 20260507120540 | 59 | 360 | 3.0 | 8.0 | 0.00 | 0.00 | 0.00 | 57 | 1031.8 |
| 20260507120047 | 59 | 360 | 4.0 | 9.0 | 0.00 | 0.00 | 0.00 | 56 | 1031.7 |
| 20260507115541 | 59 | 360 | 4.0 | 9.0 | 0.00 | 0.00 | 0.00 | 56 | 1031.7 |
| 20260507115040 | 59 | 360 | 4.0 | 9.0 | 0.00 | 0.00 | 0.00 | 56 | 1031.7 |
| 20260507114550 | 59 | 360 | 4.0 | 8.0 | 0.00 | 0.00 | 0.00 | 56 | 1031.6 |
| 20260507114040 | 59 | 360 | 3.0 | 6.0 | 0.00 | 0.00 | 0.00 | 55 | 1031.6 |
| 20260507113544 | 59 | 360 | 3.0 | 6.0 | 0.00 | 0.00 | 0.00 | 55 | 1031.6 |
| 20260507113052 | 59 | 360 | 3.0 | 8.0 | 0.00 | 0.00 | 0.00 | 55 | 1031.6 |
| 20260507112542 | 60 | 360 | 3.0 | 8.0 | 0.00 | 0.00 | 0.00 | 54 | 1031.6 |
| 20260507112045 | 60 | 360 | 4.0 | 6.0 | 0.00 | 0.00 | 0.00 | 54 | 1031.6 |
| 20260507111549 | 59 | 360 | 3.0 | 5.0 | 0.00 | 0.00 | 0.00 | 55 | 1031.6 |
| 20260507111042 | 60 | 360 | 3.0 | 5.0 | 0.00 | 0.00 | 0.00 | 54 | 1031.6 |
| 20260507110543 | 60 | 360 | 2.0 | 4.0 | 0.00 | 0.00 | 0.00 | 54 | 1031.6 |
| 20260507110101 | 60 | 360 | 2.0 | 5.0 | 0.00 | 0.00 | 0.00 | 54 | 1031.7 |
| 20260507105540 | 60 | 360 | 2.0 | 5.0 | 0.00 | 0.00 | 0.00 | 53 | 1031.6 |
| 20260507105041 | 61 | 360 | 3.0 | 5.0 | 0.00 | 0.00 | 0.00 | 52 | 1031.6 |
| 20260507104552 | 61 | 360 | 3.0 | 5.0 | 0.00 | 0.00 | 0.00 | 52 | 1031.5 |
| 20260507104041 | 61 | 360 | 3.0 | 8.0 | 0.00 | 0.00 | 0.00 | 52 | 1031.4 |
| 20260507103544 | 61 | 360 | 3.0 | 8.0 | 0.00 | 0.00 | 0.00 | 51 | 1031.4 |
| 20260507103112 | 62 | 360 | 3.0 | 9.0 | 0.00 | 0.00 | 0.00 | 51 | 1031.2 |
| 20260507102539 | 62 | 360 | 3.0 | 9.0 | 0.00 | 0.00 | 0.00 | 51 | 1031.3 |
| 20260507102040 | 62 | 360 | 4.0 | 10.0 | 0.00 | 0.00 | 0.00 | 51 | 1031.3 |
| 20260507101550 | 62 | 360 | 4.0 | 11.0 | 0.00 | 0.00 | 0.00 | 50 | 1031.2 |
| 20260507101041 | 63 | 360 | 4.0 | 11.0 | 0.00 | 0.00 | 0.00 | 50 | 1031.3 |
| 20260507100547 | 63 | 360 | 5.0 | 11.0 | 0.00 | 0.00 | 0.00 | 50 | 1031.1 |
| 20260507100103 | 63 | 360 | 4.0 | 11.0 | 0.00 | 0.00 | 0.00 | 50 | 1031.1 |
| 20260507095540 | 63 | 360 | 6.0 | 11.0 | 0.00 | 0.00 | 0.00 | 50 | 1031.0 |
| 20260507095040 | 63 | 360 | 5.0 | 11.0 | 0.00 | 0.00 | 0.00 | 49 | 1031.0 |
| 20260507094550 | 64 | 360 | 6.0 | 11.0 | 0.00 | 0.00 | 0.00 | 49 | 1031.0 |
| 20260507094040 | 64 | 360 | 5.0 | 11.0 | 0.00 | 0.00 | 0.00 | 49 | 1030.9 |
| 20260507093543 | 64 | 360 | 5.0 | 11.0 | 0.00 | 0.00 | 0.00 | 49 | 1030.9 |
| 20260507093053 | 64 | 360 | 5.0 | 10.0 | 0.00 | 0.00 | 0.00 | 48 | 1030.9 |
| 20260507092541 | 65 | 360 | 5.0 | 10.0 | 0.00 | 0.00 | 0.00 | 48 | 1030.8 |
| 20260507092040 | 65 | 360 | 5.0 | 10.0 | 0.00 | 0.00 | 0.00 | 47 | 1030.8 |
| 20260507091548 | 65 | 360 | 5.0 | 12.0 | 0.00 | 0.00 | 0.00 | 47 | 1030.7 |
| 20260507091041 | 65 | 360 | 5.0 | 13.0 | 0.00 | 0.00 | 0.00 | 47 | 1030.7 |
| 20260507090541 | 65 | 360 | 7.0 | 13.0 | 0.00 | 0.00 | 0.00 | 48 | 1030.6 |
| 20260507090055 | 65 | 360 | 6.0 | 13.0 | 0.00 | 0.00 | 0.00 | 48 | 1030.6 |
| 20260507085540 | 66 | 360 | 6.0 | 12.0 | 0.00 | 0.00 | 0.00 | 49 | 1030.4 |
| 20260507085043 | 66 | 360 | 5.0 | 11.0 | 0.00 | 0.00 | 0.00 | 48 | 1030.4 |
| 20260507084603 | 66 | 360 | 7.0 | 14.0 | 0.00 | 0.00 | 0.00 | 48 | 1030.4 |
| 20260507084042 | 66 | 360 | 6.0 | 14.0 | 0.00 | 0.00 | 0.00 | 47 | 1030.3 |
| 20260507083540 | 67 | 360 | 5.0 | 13.0 | 0.00 | 0.00 | 0.00 | 46 | 1030.3 |
| 20260507083051 | 67 | 360 | 6.0 | 14.0 | 0.00 | 0.00 | 0.00 | 46 | 1030.3 |
| 20260507082544 | 67 | 360 | 6.0 | 14.0 | 0.00 | 0.00 | 0.00 | 44 | 1030.2 |
| 20260507082041 | 67 | 360 | 6.0 | 14.0 | 0.00 | 0.00 | 0.00 | 44 | 1030.2 |
| 20260507081547 | 68 | 360 | 6.0 | 13.0 | 0.00 | 0.00 | 0.00 | 46 | 1030.3 |
| 20260507081040 | 67 | 360 | 7.0 | 13.0 | 0.00 | 0.00 | 0.00 | 46 | 1030.2 |
| 20260507080547 | 67 | 360 | 5.0 | 13.0 | 0.00 | 0.00 | 0.00 | 46 | 1030.2 |
| 20260507080056 | 67 | 360 | 7.0 | 13.0 | 0.00 | 0.00 | 0.00 | 47 | 1030.2 |
| 20260507075541 | 67 | 360 | 7.0 | 13.0 | 0.00 | 0.00 | 0.00 | 48 | 1030.2 |
| 20260507075044 | 67 | 360 | 8.0 | 15.0 | 0.00 | 0.00 | 0.00 | 49 | 1030.2 |
| 20260507074555 | 67 | 360 | 8.0 | 15.0 | 0.00 | 0.00 | 0.00 | 50 | 1030.2 |
| 20260507074040 | 67 | 360 | 5.0 | 11.0 | 0.00 | 0.00 | 0.00 | 49 | 1030.2 |
| 20260507073544 | 67 | 360 | 6.0 | 11.0 | 0.00 | 0.00 | 0.00 | 49 | 1030.1 |
| 20260507073051 | 67 | 360 | 5.0 | 13.0 | 0.00 | 0.00 | 0.00 | 48 | 1030.1 |
| 20260507072540 | 68 | 360 | 5.0 | 13.0 | 0.00 | 0.00 | 0.00 | 49 | 1030.0 |
| 20260507072042 | 68 | 360 | 6.0 | 13.0 | 0.00 | 0.00 | 0.00 | 50 | 1030.1 |
| 20260507071549 | 67 | 360 | 5.0 | 14.0 | 0.00 | 0.00 | 0.00 | 52 | 1030.3 |
| 20260507071040 | 67 | 360 | 6.0 | 14.0 | 0.00 | 0.00 | 0.00 | 52 | 1030.3 |
| 20260507070541 | 68 | 360 | 8.0 | 12.0 | 0.00 | 0.00 | 0.00 | 51 | 1030.2 |
| 20260507065542 | 67 | 360 | 6.0 | 11.0 | 0.00 | 0.00 | 0.00 | 56 | 1030.2 |
| 20260507065039 | 66 | 360 | 6.0 | 14.0 | 0.00 | 0.00 | 0.00 | 56 | 1030.2 |
| 20260507064553 | 66 | 360 | 7.0 | 14.0 | 0.00 | 0.00 | 0.00 | 57 | 1030.2 |
| 20260507064043 | 66 | 360 | 8.0 | 14.0 | 0.00 | 0.00 | 0.00 | 58 | 1030.3 |
| 20260507063544 | 66 | 360 | 8.0 | 16.0 | 0.00 | 0.00 | 0.00 | 58 | 1030.3 |
| 20260507063047 | 67 | 360 | 8.0 | 16.0 | 0.00 | 0.00 | 0.00 | 57 | 1030.2 |
| 20260507062545 | 67 | 360 | 8.0 | 14.0 | 0.00 | 0.00 | 0.00 | 53 | 1030.2 |
| 20260507062043 | 67 | 360 | 7.0 | 13.0 | 0.00 | 0.00 | 0.00 | 52 | 1030.1 |
| 20260507061550 | 67 | 360 | 7.0 | 13.0 | 0.00 | 0.00 | 0.00 | 52 | 1030.1 |
| 20260507061043 | 68 | 360 | 5.0 | 11.0 | 0.00 | 0.00 | 0.00 | 50 | 1030.1 |
| 20260507060542 | 68 | 360 | 5.0 | 12.0 | 0.00 | 0.00 | 0.00 | 50 | 1030.1 |
| 20260507060049 | 68 | 360 | 6.0 | 13.0 | 0.00 | 0.00 | 0.00 | 50 | 1030.1 |
| 20260507055543 | 69 | 360 | 6.0 | 13.0 | 0.00 | 0.00 | 0.00 | 49 | 1030.1 |
| 20260507055042 | 68 | 360 | 6.0 | 13.0 | 0.00 | 0.00 | 0.00 | 50 | 1030.1 |
| 20260507054606 | 68 | 360 | 5.0 | 13.0 | 0.00 | 0.00 | 0.00 | 51 | 1030.1 |
| 20260507054040 | 67 | 360 | 6.0 | 14.0 | 0.00 | 0.00 | 0.00 | 51 | 1030.3 |
| 20260507053545 | 67 | 360 | 8.0 | 14.0 | 0.00 | 0.00 | 0.00 | 51 | 1030.3 |
| 20260507053056 | 67 | 360 | 6.0 | 13.0 | 0.00 | 0.00 | 0.00 | 51 | 1030.3 |
| 20260507052543 | 68 | 360 | 6.0 | 12.0 | 0.00 | 0.00 | 0.00 | 51 | 1030.2 |
| 20260507052043 | 67 | 360 | 6.0 | 11.0 | 0.00 | 0.00 | 0.00 | 51 | 1030.3 |
| 20260507051551 | 67 | 360 | 5.0 | 11.0 | 0.00 | 0.00 | 0.00 | 52 | 1030.4 |
| 20260507051042 | 67 | 360 | 6.0 | 14.0 | 0.00 | 0.00 | 0.00 | 52 | 1030.4 |
| 20260507050542 | 67 | 360 | 7.0 | 14.0 | 0.00 | 0.00 | 0.00 | 51 | 1030.4 |
| 20260507050057 | 67 | 360 | 7.0 | 13.0 | 0.00 | 0.00 | 0.00 | 51 | 1030.5 |
| 20260507045542 | 67 | 360 | 5.0 | 15.0 | 0.00 | 0.00 | 0.00 | 52 | 1030.5 |
| 20260507045042 | 66 | 360 | 8.0 | 15.0 | 0.00 | 0.00 | 0.00 | 53 | 1030.6 |
| 20260507044558 | 66 | 360 | 9.0 | 15.0 | 0.00 | 0.00 | 0.00 | 53 | 1030.8 |
| 20260507044042 | 66 | 360 | 8.0 | 15.0 | 0.00 | 0.00 | 0.00 | 53 | 1030.7 |
| 20260507043544 | 66 | 360 | 8.0 | 15.0 | 0.00 | 0.00 | 0.00 | 53 | 1030.9 |
| 20260507043054 | 66 | 360 | 8.0 | 15.0 | 0.00 | 0.00 | 0.00 | 53 | 1031.0 |
| 20260507042543 | 66 | 360 | 10.0 | 15.0 | 0.00 | 0.00 | 0.00 | 53 | 1031.0 |
| 20260507042042 | 66 | 360 | 7.0 | 14.0 | 0.00 | 0.00 | 0.00 | 54 | 1031.0 |
| 20260507041559 | 66 | 360 | 8.0 | 14.0 | 0.00 | 0.00 | 0.00 | 54 | 1031.1 |
| 20260507041042 | 66 | 360 | 7.0 | 14.0 | 0.00 | 0.00 | 0.00 | 56 | 1031.3 |
| 20260507040543 | 65 | 360 | 7.0 | 14.0 | 0.00 | 0.00 | 0.00 | 56 | 1031.3 |
| 20260507040052 | 66 | 360 | 8.0 | 14.0 | 0.00 | 0.00 | 0.00 | 56 | 1031.4 |
| 20260507035542 | 66 | 360 | 6.0 | 14.0 | 0.00 | 0.00 | 0.00 | 56 | 1031.4 |
| 20260507035042 | 65 | 360 | 9.0 | 14.0 | 0.00 | 0.00 | 0.00 | 58 | 1031.4 |
| 20260507034552 | 66 | 360 | 6.0 | 12.0 | 0.00 | 0.00 | 0.00 | 59 | 1031.5 |
| 20260507034043 | 65 | 360 | 6.0 | 12.0 | 0.00 | 0.00 | 0.00 | 60 | 1031.5 |
| 20260507033542 | 65 | 360 | 5.0 | 11.0 | 0.00 | 0.00 | 0.00 | 61 | 1031.7 |
| 20260507033048 | 65 | 360 | 6.0 | 11.0 | 0.00 | 0.00 | 0.00 | 63 | 1031.8 |
| 20260507032543 | 63 | 360 | 6.0 | 13.0 | 0.00 | 0.00 | 0.00 | 64 | 1031.9 |
| 20260507032042 | 63 | 360 | 6.0 | 17.0 | 0.00 | 0.00 | 0.00 | 65 | 1032.1 |
| 20260507031551 | 64 | 360 | 10.0 | 17.0 | 0.00 | 0.00 | 0.00 | 59 | 1032.2 |
| 20260507031043 | 65 | 360 | 7.0 | 14.0 | 0.00 | 0.00 | 0.00 | 59 | 1032.1 |
| 20260507030543 | 65 | 360 | 6.0 | 12.0 | 0.00 | 0.00 | 0.00 | 59 | 1032.2 |
| 20260507030051 | 65 | 360 | 6.0 | 12.0 | 0.00 | 0.00 | 0.00 | 60 | 1032.2 |
| 20260507025543 | 64 | 360 | 7.0 | 12.0 | 0.00 | 0.00 | 0.00 | 59 | 1032.4 |
| 20260507025042 | 64 | 360 | 6.0 | 13.0 | 0.00 | 0.00 | 0.00 | 60 | 1032.4 |
| 20260507024553 | 64 | 360 | 7.0 | 17.0 | 0.00 | 0.00 | 0.00 | 59 | 1032.4 |
| 20260507024044 | 64 | 360 | 8.0 | 17.0 | 0.00 | 0.00 | 0.00 | 59 | 1032.6 |
| 20260507023542 | 64 | 360 | 10.0 | 17.0 | 0.00 | 0.00 | 0.00 | 58 | 1032.5 |
| 20260507023051 | 65 | 360 | 6.0 | 14.0 | 0.00 | 0.00 | 0.00 | 58 | 1032.6 |
| 20260507022542 | 65 | 360 | 7.0 | 13.0 | 0.00 | 0.00 | 0.00 | 58 | 1032.6 |
| 20260507022041 | 65 | 360 | 6.0 | 15.0 | 0.00 | 0.00 | 0.00 | 57 | 1032.6 |
| 20260507021611 | 65 | 360 | 8.0 | 15.0 | 0.00 | 0.00 | 0.00 | 56 | 1032.7 |
| 20260507021042 | 65 | 360 | 9.0 | 14.0 | 0.00 | 0.00 | 0.00 | 58 | 1032.6 |
| 20260507020543 | 64 | 360 | 6.0 | 15.0 | 0.00 | 0.00 | 0.00 | 64 | 1032.7 |
| 20260507020106 | 63 | 360 | 9.0 | 15.0 | 0.00 | 0.00 | 0.00 | 65 | 1032.7 |
| 20260507015545 | 62 | 360 | 8.0 | 13.0 | 0.00 | 0.00 | 0.00 | 67 | 1032.8 |
| 20260507015042 | 62 | 360 | 6.0 | 12.0 | 0.00 | 0.00 | 0.00 | 67 | 1033.0 |
| 20260507014616 | 61 | 360 | 6.0 | 12.0 | 0.00 | 0.00 | 0.00 | 68 | 1032.9 |
| 20260507014043 | 61 | 360 | 5.0 | 12.0 | 0.00 | 0.00 | 0.00 | 68 | 1032.9 |
| 20260507013543 | 62 | 360 | 6.0 | 12.0 | 0.00 | 0.00 | 0.00 | 66 | 1033.0 |
| 20260507013049 | 62 | 360 | 5.0 | 11.0 | 0.00 | 0.00 | 0.00 | 66 | 1032.9 |
| 20260507012542 | 61 | 360 | 5.0 | 11.0 | 0.00 | 0.00 | 0.00 | 67 | 1033.0 |
| 20260507012043 | 61 | 360 | 4.0 | 11.0 | 0.00 | 0.00 | 0.00 | 67 | 1033.1 |
| 20260507011558 | 61 | 360 | 6.0 | 11.0 | 0.00 | 0.00 | 0.00 | 67 | 1033.1 |
| 20260507011042 | 61 | 360 | 5.0 | 11.0 | 0.00 | 0.00 | 0.00 | 67 | 1033.2 |
| 20260507010542 | 61 | 360 | 7.0 | 13.0 | 0.00 | 0.00 | 0.00 | 68 | 1033.1 |
| 20260507010049 | 61 | 360 | 5.0 | 13.0 | 0.00 | 0.00 | 0.00 | 68 | 1033.2 |
| 20260507005543 | 61 | 360 | 4.0 | 13.0 | 0.00 | 0.00 | 0.00 | 68 | 1033.2 |
| 20260507005045 | 61 | 360 | 5.0 | 10.0 | 0.00 | 0.00 | 0.00 | 69 | 1033.2 |
| 20260507004549 | 61 | 360 | 6.0 | 12.0 | 0.00 | 0.00 | 0.00 | 69 | 1033.2 |
| 20260507004043 | 61 | 360 | 5.0 | 12.0 | 0.00 | 0.00 | 0.00 | 70 | 1033.1 |
| 20260507003540 | 60 | 360 | 7.0 | 12.0 | 0.00 | 0.00 | 0.00 | 69 | 1033.0 |
| 20260507003053 | 61 | 360 | 7.0 | 12.0 | 0.00 | 0.00 | 0.00 | 69 | 1033.1 |
| 20260507002542 | 61 | 360 | 6.0 | 12.0 | 0.00 | 0.00 | 0.00 | 70 | 1033.0 |
| 20260507002042 | 60 | 360 | 5.0 | 11.0 | 0.00 | 0.00 | 0.00 | 72 | 1032.9 |
| 20260507001602 | 60 | 360 | 5.0 | 10.0 | 0.00 | 0.00 | 0.00 | 72 | 1032.9 |
| 20260507001042 | 59 | 360 | 4.0 | 10.0 | 0.00 | 0.00 | 0.00 | 73 | 1032.9 |
| 20260507000542 | 59 | 360 | 4.0 | 9.0 | 0.00 | 0.00 | 0.00 | 73 | 1032.8 |
| 20260507000104 | 59 | 360 | 4.0 | 10.0 | 0.00 | 0.00 | 0.00 | 73 | 1032.7 |
| 20260506235542 | 59 | 360 | 4.0 | 10.0 | 0.00 | 0.00 | 0.00 | 74 | 1032.6 |
| 20260506235042 | 58 | 360 | 4.0 | 10.0 | 0.00 | 0.00 | 0.00 | 74 | 1032.7 |
| 20260506234612 | 58 | 360 | 6.0 | 10.0 | 0.00 | 0.00 | 0.00 | 74 | 1032.5 |
| 20260506234040 | 58 | 360 | 4.0 | 8.0 | 0.00 | 0.00 | 0.00 | 74 | 1032.6 |
| 20260506233543 | 58 | 360 | 4.0 | 8.0 | 0.00 | 0.00 | 0.00 | 74 | 1032.4 |
| 20260506233055 | 58 | 360 | 3.0 | 8.0 | 0.00 | 0.00 | 0.00 | 75 | 1032.2 |
| 20260506232544 | 58 | 360 | 4.0 | 8.0 | 0.00 | 0.00 | 0.00 | 76 | 1032.2 |
| 20260506232045 | 57 | 360 | 3.0 | 6.0 | 0.00 | 0.00 | 0.00 | 76 | 1032.2 |
| 20260506231552 | 57 | 360 | 3.0 | 6.0 | 0.00 | 0.00 | 0.00 | 77 | 1032.2 |
| 20260506231042 | 57 | 360 | 3.0 | 6.0 | 0.00 | 0.00 | 0.00 | 77 | 1032.1 |
| 20260506230542 | 57 | 360 | 3.0 | 6.0 | 0.00 | 0.00 | 0.00 | 77 | 1031.9 |
| 20260506230101 | 57 | 360 | 3.0 | 6.0 | 0.00 | 0.00 | 0.00 | 77 | 1031.9 |
| 20260506225544 | 56 | 360 | 3.0 | 5.0 | 0.00 | 0.00 | 0.00 | 78 | 1031.8 |
| 20260506225041 | 56 | 360 | 3.0 | 5.0 | 0.00 | 0.00 | 0.00 | 78 | 1031.7 |
| 20260506224553 | 56 | 360 | 1.0 | 6.0 | 0.00 | 0.00 | 0.00 | 78 | 1031.7 |
| 20260506224043 | 56 | 360 | 2.0 | 6.0 | 0.00 | 0.00 | 0.00 | 78 | 1031.7 |
| 20260506223540 | 56 | 360 | 2.0 | 5.0 | 0.00 | 0.00 | 0.00 | 78 | 1031.6 |
| 20260506223049 | 56 | 360 | 2.0 | 5.0 | 0.00 | 0.00 | 0.00 | 78 | 1031.5 |
| 20260506222543 | 55 | 360 | 2.0 | 5.0 | 0.00 | 0.00 | 0.00 | 79 | 1031.5 |
| 20260506222042 | 55 | 360 | 2.0 | 5.0 | 0.00 | 0.00 | 0.00 | 79 | 1031.4 |
| 20260506221600 | 55 | 360 | 2.0 | 6.0 | 0.00 | 0.00 | 0.00 | 79 | 1031.4 |
| 20260506221043 | 55 | 360 | 2.0 | 6.0 | 0.00 | 0.00 | 0.00 | 79 | 1031.3 |
| 20260506220543 | 55 | 360 | 3.0 | 6.0 | 0.00 | 0.00 | 0.00 | 79 | 1031.3 |
| 20260506220050 | 55 | 360 | 2.0 | 6.0 | 0.00 | 0.00 | 0.00 | 80 | 1031.1 |
| 20260506215542 | 55 | 360 | 3.0 | 8.0 | 0.00 | 0.00 | 0.00 | 80 | 1031.0 |
| 20260506215041 | 55 | 360 | 3.0 | 8.0 | 0.00 | 0.00 | 0.00 | 80 | 1031.1 |
| 20260506214559 | 55 | 360 | 3.0 | 8.0 | 0.00 | 0.00 | 0.00 | 80 | 1031.0 |
| 20260506214042 | 55 | 360 | 2.0 | 6.0 | 0.00 | 0.00 | 0.00 | 80 | 1030.9 |
| 20260506213546 | 55 | 360 | 3.0 | 6.0 | 0.00 | 0.00 | 0.00 | 81 | 1030.8 |
| 20260506213056 | 54 | 360 | 3.0 | 6.0 | 0.00 | 0.00 | 0.00 | 81 | 1030.9 |
| 20260506212541 | 54 | 360 | 2.0 | 6.0 | 0.00 | 0.00 | 0.00 | 82 | 1030.8 |
| 20260506212044 | 54 | 360 | 3.0 | 5.0 | 0.00 | 0.00 | 0.00 | 82 | 1030.8 |
| 20260506211554 | 54 | 360 | 3.0 | 5.0 | 0.00 | 0.00 | 0.00 | 82 | 1030.9 |
| 20260506211039 | 54 | 0 | 0.0 | 1.0 | 0.00 | 0.00 | 0.00 | 82 | 1030.7 |
| 20260506210541 | 53 | 0 | 0.0 | 3.0 | 0.00 | 0.00 | 0.00 | 82 | 1030.7 |
| 20260506210051 | 53 | 0 | 0.0 | 3.0 | 0.00 | 0.00 | 0.00 | 82 | 1030.6 |
| 20260506205540 | 53 | 0 | 0.0 | 3.0 | 0.00 | 0.00 | 0.00 | 82 | 1030.6 |
| 20260506205040 | 53 | 0 | 0.0 | 1.0 | 0.00 | 0.00 | 0.00 | 82 | 1030.6 |
| 20260506204549 | 53 | 0 | 0.0 | 0.0 | 0.00 | 0.00 | 0.00 | 81 | 1030.5 |
| 20260506204041 | 53 | 0 | 0.0 | 3.0 | 0.00 | 0.00 | 0.00 | 81 | 1030.5 |
| 20260506203543 | 54 | 0 | 0.0 | 5.0 | 0.00 | 0.00 | 0.00 | 81 | 1030.5 |
| 20260506203049 | 54 | 360 | 2.0 | 5.0 | 0.00 | 0.00 | 0.00 | 81 | 1030.6 |
| 20260506202542 | 54 | 360 | 2.0 | 5.0 | 0.00 | 0.00 | 0.00 | 81 | 1030.5 |
| 20260506202046 | 54 | 360 | 2.0 | 5.0 | 0.00 | 0.00 | 0.00 | 80 | 1030.6 |
| 20260506201547 | 55 | 360 | 2.0 | 5.0 | 0.00 | 0.00 | 0.00 | 80 | 1030.5 |
| 20260506201043 | 55 | 360 | 2.0 | 5.0 | 0.00 | 0.00 | 0.00 | 80 | 1030.4 |
| 20260506200552 | 55 | 360 | 2.0 | 5.0 | 0.00 | 0.00 | 0.00 | 80 | 1030.5 |
| 20260506200051 | 55 | 360 | 2.0 | 5.0 | 0.00 | 0.00 | 0.00 | 79 | 1030.4 |
| 20260506195543 | 55 | 360 | 2.0 | 4.0 | 0.00 | 0.00 | 0.00 | 79 | 1030.4 |
| 20260506195040 | 55 | 360 | 2.0 | 4.0 | 0.00 | 0.00 | 0.00 | 78 | 1030.3 |
| 20260506194549 | 56 | 360 | 2.0 | 5.0 | 0.00 | 0.00 | 0.00 | 78 | 1030.2 |
| 20260506194044 | 56 | 360 | 2.0 | 6.0 | 0.00 | 0.00 | 0.00 | 77 | 1030.3 |
| 20260506193541 | 56 | 360 | 2.0 | 6.0 | 0.00 | 0.00 | 0.00 | 77 | 1030.2 |
| 20260506193054 | 56 | 360 | 3.0 | 6.0 | 0.00 | 0.00 | 0.00 | 77 | 1030.3 |
| 20260506192540 | 56 | 360 | 3.0 | 6.0 | 0.00 | 0.00 | 0.00 | 77 | 1030.3 |
| 20260506192043 | 56 | 360 | 2.0 | 6.0 | 0.00 | 0.00 | 0.00 | 76 | 1030.3 |
| 20260506191553 | 56 | 360 | 3.0 | 6.0 | 0.00 | 0.00 | 0.00 | 76 | 1030.1 |
| 20260506191043 | 56 | 360 | 3.0 | 5.0 | 0.00 | 0.00 | 0.00 | 77 | 1030.1 |
| 20260506190543 | 56 | 360 | 3.0 | 5.0 | 0.00 | 0.00 | 0.00 | 77 | 1030.1 |
| 20260506190053 | 56 | 360 | 2.0 | 5.0 | 0.00 | 0.00 | 0.00 | 77 | 1030.1 |
| 20260506185542 | 56 | 360 | 1.0 | 4.0 | 0.00 | 0.00 | 0.00 | 77 | 1030.1 |
| 20260506185042 | 56 | 360 | 2.0 | 4.0 | 0.00 | 0.00 | 0.00 | 77 | 1030.1 |
| 20260506184555 | 56 | 360 | 2.0 | 4.0 | 0.00 | 0.00 | 0.00 | 77 | 1030.1 |
| 20260506184042 | 56 | 360 | 2.0 | 4.0 | 0.00 | 0.00 | 0.00 | 78 | 1030.1 |
| 20260506183542 | 56 | 360 | 2.0 | 4.0 | 0.00 | 0.00 | 0.00 | 79 | 1030.1 |
| 20260506183101 | 55 | 360 | 1.0 | 3.0 | 0.00 | 0.00 | 0.00 | 79 | 1030.1 |
| 20260506182544 | 55 | 360 | 1.0 | 3.0 | 0.00 | 0.00 | 0.00 | 79 | 1030.0 |
| 20260506182039 | 55 | 360 | 1.0 | 3.0 | 0.00 | 0.00 | 0.00 | 79 | 1030.0 |
| 20260506181602 | 55 | 360 | 1.0 | 4.0 | 0.00 | 0.00 | 0.00 | 79 | 1030.0 |
| 20260506181040 | 55 | 360 | 1.0 | 4.0 | 0.00 | 0.00 | 0.00 | 79 | 1030.0 |
| 20260506180542 | 55 | 360 | 0.0 | 4.0 | 0.00 | 0.00 | 0.00 | 79 | 1030.0 |
| 20260506180054 | 56 | 0 | 0.0 | 3.0 | 0.00 | 0.00 | 0.00 | 79 | 1030.0 |
| 20260506175539 | 56 | 0 | 0.0 | 3.0 | 0.00 | 0.00 | 0.00 | 79 | 1030.0 |
| 20260506175041 | 56 | 360 | 1.0 | 3.0 | 0.00 | 0.00 | 0.00 | 79 | 1030.0 |
| 20260506174553 | 56 | 360 | 1.0 | 3.0 | 0.00 | 0.00 | 0.00 | 79 | 1030.1 |
| 20260506174043 | 56 | 360 | 1.0 | 3.0 | 0.00 | 0.00 | 0.00 | 79 | 1030.1 |
| 20260506173539 | 56 | 0 | 0.0 | 0.0 | 0.00 | 0.00 | 0.00 | 79 | 1030.1 |
| 20260506173116 | 56 | 0 | 0.0 | 0.0 | 0.00 | 0.00 | 0.00 | 79 | 1030.1 |
| 20260506172543 | 56 | 0 | 0.0 | 0.0 | 0.00 | 0.00 | 0.00 | 79 | 1030.1 |
| 20260506172042 | 56 | 0 | 0.0 | 2.0 | 0.00 | 0.00 | 0.00 | 79 | 1030.2 |
| 20260506171554 | 56 | 0 | 0.0 | 2.0 | 0.00 | 0.00 | 0.00 | 78 | 1030.1 |
| 20260506171043 | 56 | 360 | 1.0 | 3.0 | 0.00 | 0.00 | 0.00 | 78 | 1030.2 |
| 20260506170543 | 56 | 360 | 1.0 | 3.0 | 0.00 | 0.00 | 0.00 | 78 | 1030.2 |
| 20260506170105 | 56 | 360 | 0.0 | 2.0 | 0.00 | 0.00 | 0.00 | 77 | 1030.2 |
| 20260506165543 | 57 | 0 | 0.0 | 3.0 | 0.00 | 0.00 | 0.00 | 77 | 1030.2 |
| 20260506165043 | 57 | 360 | 1.0 | 4.0 | 0.00 | 0.00 | 0.00 | 77 | 1030.3 |
| 20260506164546 | 57 | 360 | 1.0 | 4.0 | 0.00 | 0.00 | 0.00 | 76 | 1030.2 |
| 20260506164043 | 57 | 360 | 2.0 | 5.0 | 0.00 | 0.00 | 0.00 | 76 | 1030.4 |
| 20260506163543 | 58 | 360 | 2.0 | 5.0 | 0.00 | 0.00 | 0.00 | 76 | 1030.4 |
| 20260506163055 | 58 | 360 | 3.0 | 6.0 | 0.00 | 0.00 | 0.00 | 76 | 1030.4 |
| 20260506162543 | 58 | 360 | 3.0 | 8.0 | 0.00 | 0.00 | 0.00 | 75 | 1030.5 |
| 20260506162043 | 58 | 360 | 3.0 | 8.0 | 0.00 | 0.00 | 0.00 | 75 | 1030.4 |
| 20260506161549 | 58 | 360 | 3.0 | 9.0 | 0.00 | 0.00 | 0.00 | 75 | 1030.4 |
| 20260506161045 | 58 | 360 | 4.0 | 10.0 | 0.00 | 0.00 | 0.00 | 75 | 1030.5 |
| 20260506160543 | 59 | 360 | 4.0 | 11.0 | 0.00 | 0.00 | 0.00 | 75 | 1030.4 |
| 20260506160050 | 59 | 360 | 5.0 | 11.0 | 0.00 | 0.00 | 0.00 | 75 | 1030.3 |
| 20260506155544 | 59 | 360 | 3.0 | 11.0 | 0.00 | 0.00 | 0.00 | 75 | 1030.3 |
| 20260506155050 | 59 | 360 | 5.0 | 11.0 | 0.00 | 0.00 | 0.00 | 75 | 1030.4 |
| 20260506154608 | 59 | 360 | 4.0 | 11.0 | 0.00 | 0.00 | 0.00 | 75 | 1030.4 |
| 20260506154043 | 59 | 360 | 5.0 | 14.0 | 0.00 | 0.00 | 0.00 | 75 | 1030.4 |
| 20260506153540 | 59 | 360 | 7.0 | 14.0 | 0.00 | 0.00 | 0.00 | 75 | 1030.5 |
| 20260506153049 | 59 | 360 | 6.0 | 12.0 | 0.00 | 0.00 | 0.00 | 75 | 1030.4 |
| 20260506152542 | 59 | 360 | 5.0 | 12.0 | 0.00 | 0.00 | 0.00 | 75 | 1030.4 |
| 20260506152042 | 59 | 360 | 7.0 | 16.0 | 0.00 | 0.00 | 0.00 | 75 | 1030.4 |
| 20260506151551 | 59 | 360 | 7.0 | 16.0 | 0.00 | 0.00 | 0.00 | 74 | 1030.4 |
| 20260506151042 | 60 | 360 | 9.0 | 16.0 | 0.00 | 0.00 | 0.00 | 75 | 1030.4 |
| 20260506150542 | 60 | 360 | 9.0 | 15.0 | 0.00 | 0.00 | 0.00 | 75 | 1030.4 |
| 20260506150047 | 60 | 360 | 7.0 | 14.0 | 0.00 | 0.00 | 0.00 | 75 | 1030.5 |
| 20260506145543 | 60 | 360 | 8.0 | 14.0 | 0.00 | 0.00 | 0.00 | 75 | 1030.6 |
| 20260506145044 | 60 | 360 | 7.0 | 14.0 | 0.00 | 0.00 | 0.00 | 75 | 1030.6 |
| 20260506144556 | 60 | 360 | 6.0 | 12.0 | 0.00 | 0.00 | 0.00 | 75 | 1030.4 |
| 20260506144044 | 60 | 360 | 5.0 | 13.0 | 0.00 | 0.00 | 0.00 | 75 | 1030.5 |
| 20260506143542 | 60 | 360 | 6.0 | 14.0 | 0.00 | 0.00 | 0.00 | 75 | 1030.4 |
| 20260506143053 | 60 | 360 | 9.0 | 14.0 | 0.00 | 0.00 | 0.00 | 74 | 1030.6 |
| 20260506142553 | 61 | 360 | 8.0 | 17.0 | 0.00 | 0.00 | 0.00 | 73 | 1030.5 |
| 20260506142043 | 61 | 360 | 7.0 | 17.0 | 0.00 | 0.00 | 0.00 | 73 | 1030.5 |
| 20260506141551 | 61 | 360 | 8.0 | 17.0 | 0.00 | 0.00 | 0.00 | 71 | 1030.5 |
| 20260506141041 | 62 | 360 | 6.0 | 13.0 | 0.00 | 0.00 | 0.00 | 70 | 1030.4 |
| 20260506140544 | 62 | 360 | 8.0 | 13.0 | 0.00 | 0.00 | 0.00 | 69 | 1030.4 |
| 20260506140051 | 62 | 360 | 5.0 | 13.0 | 0.00 | 0.00 | 0.00 | 68 | 1030.3 |
| 20260506135541 | 62 | 360 | 6.0 | 13.0 | 0.00 | 0.00 | 0.00 | 68 | 1030.3 |
| 20260506135039 | 62 | 360 | 6.0 | 14.0 | 0.00 | 0.00 | 0.00 | 68 | 1030.3 |
| 20260506134551 | 62 | 360 | 6.0 | 15.0 | 0.00 | 0.00 | 0.00 | 68 | 1030.3 |
| 20260506134042 | 62 | 360 | 8.0 | 15.0 | 0.00 | 0.00 | 0.00 | 67 | 1030.3 |
| 20260506133543 | 63 | 360 | 8.0 | 15.0 | 0.00 | 0.00 | 0.00 | 67 | 1030.3 |
| 20260506133102 | 63 | 360 | 6.0 | 13.0 | 0.00 | 0.00 | 0.00 | 67 | 1030.3 |
| 20260506132543 | 63 | 360 | 5.0 | 14.0 | 0.00 | 0.00 | 0.00 | 67 | 1030.3 |
| 20260506132042 | 63 | 360 | 8.0 | 14.0 | 0.00 | 0.00 | 0.00 | 67 | 1030.2 |
| 20260506131548 | 63 | 360 | 8.0 | 14.0 | 0.00 | 0.00 | 0.00 | 66 | 1030.2 |
| 20260506131042 | 63 | 360 | 7.0 | 13.0 | 0.00 | 0.00 | 0.00 | 66 | 1030.2 |
| 20260506130542 | 63 | 360 | 7.0 | 13.0 | 0.00 | 0.00 | 0.00 | 66 | 1030.2 |
| 20260506130047 | 63 | 360 | 6.0 | 13.0 | 0.00 | 0.00 | 0.00 | 66 | 1030.0 |
| 20260506125543 | 64 | 360 | 6.0 | 13.0 | 0.00 | 0.00 | 0.00 | 66 | 1030.0 |
| 20260506125041 | 64 | 360 | 6.0 | 11.0 | 0.00 | 0.00 | 0.00 | 65 | 1029.9 |